Indiana, PA

7:08 AM EST on November 25, 2017 (GMT -0500)
Indiana County-Stewart

Weather History for KIDI - April, 2013

Change the Weather History Date:

Saturday, April 6, 2013

  Actual Average Record
Temperature  
Mean Temperature 38 °F -  
Max Temperature 55 °F 55 °F 78 °F (2005)
Min Temperature 21 °F 33 °F 18 °F (1968)
Degree Days  
Heating Degree Days 27    
Moisture  
Dew Point 18 °F    
Average Humidity 51    
Maximum Humidity 100    
Minimum Humidity 19    
Precipitation  
Precipitation 0.00 in - - ()
Sea Level Pressure  
Sea Level Pressure 30.18 in    
Wind  
Wind Speed 3 mph (SSE)    
Max Wind Speed 12 mph    
Max Gust Speed 20 mph    
Visibility 10 miles    
Events      
Averages and records for this station are not official NWS values.
T = Trace of Precipitation, MM = Missing Value Source: NWS Daily Summary

Daily Weather History Graph

Daily Weather History Graph

Search for Another Location

Airport or City:

Trip Planner

Search our weather history database for the weather conditions in past years. The results will help you decide how hot, cold, wet, or windy it might be!

Date:

Astronomy

Apr. 06, 2013 Rise Set
Actual Time 6:51 AM EDT 7:46 PM EDT
Civil Twilight 6:23 AM EDT 8:14 PM EDT
Nautical Twilight 5:50 AM EDT 8:47 PM EDT
Astronomical Twilight 5:16 AM EDT 9:22 PM EDT
Moon 4:35 AM EDT (4/6) 4:12 PM EDT (4/6)
Length of Visible Light 13h 50m
Length of Day
12h 55m
Waning Crescent, 15% of the Moon is Illuminated
Apr 6
Waning Crescent
Apr 10
New
Apr 18
First Quarter
Apr 25
Full
May 2
Last Quarter

Hourly Weather History & Observations

Time (EDT) Temp. Windchill Dew Point Humidity Pressure Visibility Wind Dir Wind Speed Gust Speed Precip Events Conditions
12:15 AM 30.2 °F 25.4 °F 23.0 °F 75% 30.15 in 10.0 mi NNW 4.6 mph - N/A   Unknown
12:35 AM 30.2 °F - 23.0 °F 75% 30.16 in 10.0 mi Calm Calm - N/A   Unknown
12:55 AM 30.2 °F 25.4 °F 23.0 °F 75% 30.16 in 10.0 mi NNW 4.6 mph - N/A   Unknown
1:15 AM 28.4 °F 24.6 °F 23.0 °F 80% 30.17 in 10.0 mi NNW 3.5 mph - N/A   Unknown
1:35 AM 28.4 °F - 23.0 °F 80% 30.17 in 10.0 mi Calm Calm - N/A   Unknown
1:55 AM 28.4 °F - 23.0 °F 80% 30.17 in 10.0 mi Calm Calm - N/A   Unknown
2:15 AM 28.4 °F - 21.2 °F 74% 30.17 in 10.0 mi Calm Calm - N/A   Unknown
2:35 AM 28.4 °F - 21.2 °F 74% 30.18 in 10.0 mi Calm Calm - N/A   Unknown
2:55 AM 28.4 °F - 21.2 °F 74% 30.18 in 10.0 mi Calm Calm - N/A   Unknown
3:15 AM 26.6 °F - 21.2 °F 80% 30.17 in 10.0 mi Calm Calm - N/A   Unknown
3:35 AM 26.6 °F - 21.2 °F 80% 30.17 in 10.0 mi Calm Calm - N/A   Unknown
3:55 AM 26.6 °F - 21.2 °F 80% 30.17 in 10.0 mi Calm Calm - N/A   Unknown
4:15 AM 24.8 °F - 21.2 °F 86% 30.17 in 10.0 mi Calm Calm - N/A   Unknown
4:35 AM 24.8 °F - 21.2 °F 86% 30.17 in 10.0 mi Calm Calm - N/A   Unknown
4:55 AM 24.8 °F - 21.2 °F 86% 30.18 in 10.0 mi Calm Calm - N/A   Unknown
5:15 AM 23.0 °F - 21.2 °F 93% 30.19 in 10.0 mi Calm Calm - N/A   Unknown
5:35 AM 23.0 °F - 21.2 °F 93% 30.20 in 10.0 mi Calm Calm - N/A   Unknown
5:55 AM 23.0 °F - 21.2 °F 93% 30.21 in 10.0 mi Calm Calm - N/A   Unknown
6:15 AM 21.2 °F - 21.2 °F 100% 30.21 in 10.0 mi Calm Calm - N/A   Unknown
6:35 AM 21.2 °F - 21.2 °F 100% 30.22 in 10.0 mi Calm Calm - N/A   Unknown
6:55 AM 21.2 °F - 21.2 °F 100% 30.23 in 10.0 mi Calm Calm - N/A   Unknown
7:15 AM 21.2 °F - 21.2 °F 100% 30.24 in 10.0 mi Calm Calm - N/A   Unknown
7:35 AM 21.2 °F - 21.2 °F 100% 30.24 in 10.0 mi Calm Calm - N/A   Unknown
7:55 AM 24.8 °F - 24.8 °F 100% 30.25 in 10.0 mi Calm Calm - N/A   Unknown
8:15 AM 26.6 °F - 24.8 °F 93% 30.26 in 10.0 mi Calm Calm - N/A   Unknown
8:35 AM 28.4 °F - 24.8 °F 86% 30.27 in 10.0 mi Calm Calm - N/A   Unknown
8:55 AM 30.2 °F - 24.8 °F 80% 30.28 in 10.0 mi Calm Calm - N/A   Unknown
9:15 AM 32.0 °F 25.6 °F 23.0 °F 69% 30.28 in 10.0 mi SE 6.9 mph - N/A   Unknown
9:35 AM 33.8 °F 29.6 °F 23.0 °F 65% 30.28 in 10.0 mi ESE 4.6 mph - N/A   Unknown
9:55 AM 33.8 °F 27.0 °F 21.2 °F 60% 30.27 in 10.0 mi East 8.1 mph - N/A   Unknown
10:15 AM 35.6 °F 30.7 °F 21.2 °F 56% 30.27 in 10.0 mi ESE 5.8 mph - N/A   Unknown
10:35 AM 37.4 °F 32.8 °F 19.4 °F 48% 30.27 in 10.0 mi East 5.8 mph - N/A   Unknown
10:55 AM 37.4 °F 34.9 °F 19.4 °F 48% 30.28 in 10.0 mi SSE 3.5 mph - N/A   Unknown
11:15 AM 39.2 °F - 19.4 °F 45% 30.28 in 10.0 mi Calm Calm - N/A   Unknown
11:35 AM 41.0 °F 39.0 °F 17.6 °F 39% 30.27 in 10.0 mi East 3.5 mph - N/A   Unknown
11:55 AM 42.8 °F - 17.6 °F 36% 30.27 in 10.0 mi Calm Calm - N/A   Unknown
12:15 PM 44.6 °F 42.2 °F 17.6 °F 34% 30.26 in 10.0 mi ESE 4.6 mph - N/A   Unknown
12:35 PM 44.6 °F 41.4 °F 14.0 °F 29% 30.24 in 10.0 mi SE 5.8 mph - N/A   Unknown
12:55 PM 46.4 °F 42.4 °F 14.0 °F 27% 30.23 in 10.0 mi South 8.1 mph - N/A   Unknown
1:15 PM 48.2 °F - 14.0 °F 25% 30.23 in 10.0 mi SE 6.9 mph - N/A   Unknown
1:35 PM 48.2 °F - 12.2 °F 24% 30.22 in 10.0 mi South 4.6 mph - N/A   Unknown
1:55 PM 48.2 °F - 10.4 °F 22% 30.21 in 10.0 mi ESE 3.5 mph - N/A   Unknown
2:15 PM 51.8 °F - 15.8 °F 24% 30.21 in 10.0 mi South 9.2 mph - N/A   Unknown
2:35 PM 51.8 °F - 14.0 °F 22% 30.20 in 10.0 mi SSW 6.9 mph - N/A   Unknown
2:55 PM 51.8 °F - 10.4 °F 19% 30.19 in 10.0 mi SE 5.8 mph - N/A   Unknown
3:15 PM 53.6 °F - 15.8 °F 22% 30.17 in 10.0 mi SSW 6.9 mph 16.1 mph N/A   Unknown
3:35 PM 53.6 °F - 15.8 °F 22% 30.17 in 10.0 mi SSW 8.1 mph - N/A   Unknown
3:55 PM 53.6 °F - 12.2 °F 19% 30.16 in 10.0 mi SSW 5.8 mph - N/A   Unknown
4:15 PM 53.6 °F - 14.0 °F 21% 30.15 in 10.0 mi South 6.9 mph - N/A   Unknown
4:35 PM 55.4 °F - 14.0 °F 20% 30.14 in 10.0 mi SSE 8.1 mph - N/A   Unknown
4:55 PM 55.4 °F - 15.8 °F 21% 30.14 in 10.0 mi South 8.1 mph - N/A   Unknown
5:15 PM 55.4 °F - 15.8 °F 21% 30.14 in 10.0 mi SSE 8.1 mph - N/A   Unknown
5:35 PM 55.4 °F - 15.8 °F 21% 30.14 in 10.0 mi South 9.2 mph - N/A   Unknown
5:55 PM 55.4 °F - 15.8 °F 21% 30.14 in 10.0 mi SSE 9.2 mph - N/A   Unknown
6:15 PM 55.4 °F - 14.0 °F 20% 30.14 in 10.0 mi South 10.4 mph - N/A   Unknown
6:35 PM 55.4 °F - 15.8 °F 21% 30.14 in 10.0 mi South 9.2 mph 16.1 mph N/A   Unknown
6:55 PM 53.6 °F - 15.8 °F 22% 30.13 in 10.0 mi SSE 8.1 mph - N/A   Unknown
7:15 PM 53.6 °F - 15.8 °F 22% 30.13 in 10.0 mi South 8.1 mph - N/A   Unknown
7:35 PM 51.8 °F - 14.0 °F 22% 30.12 in 10.0 mi South 4.6 mph - N/A   Unknown
7:55 PM 51.8 °F - 12.2 °F 21% 30.11 in 10.0 mi SSE 4.6 mph - N/A   Unknown
8:15 PM 51.8 °F - 12.2 °F 21% 30.12 in 10.0 mi SE 6.9 mph - N/A   Unknown
8:35 PM 51.8 °F - 12.2 °F 21% 30.11 in 10.0 mi SE 8.1 mph - N/A   Unknown
8:55 PM 50.0 °F - 14.0 °F 24% 30.11 in 10.0 mi SE 10.4 mph 16.1 mph N/A   Unknown
9:15 PM 50.0 °F - 15.8 °F 26% 30.11 in 10.0 mi SE 9.2 mph - N/A   Unknown
9:35 PM 48.2 °F - 17.6 °F 30% 30.11 in 10.0 mi SE 10.4 mph - N/A   Unknown
9:55 PM 48.2 °F - 17.6 °F 30% 30.10 in 10.0 mi SE 9.2 mph 16.1 mph N/A   Unknown
10:15 PM 48.2 °F - 17.6 °F 30% 30.10 in 10.0 mi SSE 9.2 mph 17.3 mph N/A   Unknown
10:35 PM 48.2 °F - 17.6 °F 30% 30.09 in 10.0 mi SSE 10.4 mph 17.3 mph N/A   Unknown
10:55 PM 48.2 °F - 17.6 °F 30% 30.09 in 10.0 mi SSE 10.4 mph 19.6 mph N/A   Unknown
11:15 PM 48.2 °F - 19.4 °F 32% 30.08 in 10.0 mi SSE 6.9 mph 16.1 mph N/A   Unknown
11:35 PM 48.2 °F - 19.4 °F 32% 30.08 in 10.0 mi South 11.5 mph - N/A   Unknown
11:55 PM 48.2 °F - 19.4 °F 32% 30.07 in 10.0 mi SSE 10.4 mph 18.4 mph N/A   Unknown